Vertical_Velocity
-6 15 -1 -6 -3 -5 4 7 3 -11 -11 16 1 -1 -8 -5 4 -1 0 -1 -2 3 -11 -13 11 13 -5 -8 -7 -7 -7 -8 -3 6 7 10 -15 1 -0 2 -2 6 -1 1
6 -0 -9 2 3 7 3 4 -11 -11 -3 20 -1 -10 -6 -1 -4 4 3 4 -4 9 -7 7 19 9 -3 -6 -1 -7 2 -2 1 -2 3 5 4 -0 3 2 -5 5 8 -1
9 -12 2 10 -1 8 -3 5 -3 8 -6 -3 7 -8 -3 -14 1 -4 -7 1 3 2 -12 23 4 -7 -9 -14 -3 -7 -5 -6 4 2 1 14 13 8 1 2 0 -8 7 2
4 -9 5 0 1 13 7 -2 4 2 11 -2 11 -16 -3 -5 -5 1 -7 -5 2 6 14 8 1 -4 7 6 -6 -8 -6 4 12 4 -6 4 -0 -5 1 0 0 -3 6 5
-39 -1 -0 4 -7 7 -14 6 4 2 2 12 -9 19 -27 5 -2 -7 -4 -5 6 -1 -2 -1 -1 11 -2 -4 -9 -2 -4 -5 9 2 2 13 -4 4 -1 -2 -1 -0 0 -1
-8 -7 13 -8 -7 5 -3 4 1 2 6 9 -14 16 -23 -2 -9 -2 -1 2 7 3 -4 -5 -2 -18 34 5 -4 -0 5 -6 -4 -0 -1 1 3 -1 -1 -2 -1 -2 2 2
-7 -8 -8 19 9 -3 16 12 -1 1 9 -13 -2 12 -29 -5 -4 -1 -3 3 3 0 -4 -12 7 -2 -5 -6 1 -10 -3 15 -5 -4 -4 -1 4 1 2 4 2 0 -1 2
6 -23 3 -1 11 13 -0 8 8 -4 -1 -12 -1 -3 -47 -9 -2 -2 5 -1 -3 -6 1 0 3 -3 4 3 7 -4 -8 -4 11 -2 -9 -2 3 -1 4 15 2 -1 -1 -4
5 -18 -14 5 0 5 -12 1 3 10 -1 11 -4 -19 8 -2 3 2 3 2 2 9 -7 12 -3 3 -3 4 3 -0 -6 -8 15 3 -4 1 -1 2 0 12 3 -2 -2 -1
-15 -1 -2 -19 10 -12 22 3 -4 3 2 1 -5 -3 -3 -1 2 4 3 1 2 2 3 0 -1 7 3 1 1 1 -0 -3 -7 3 3 -3 -2 4 2 6 5 -1 -2 1
5 17 -32 8 -1 -0 4 -2 -1 5 3 1 -1 -13 -7 -2 0 1 1 0 2 0 6 10 1 -12 -1 1 -7 -6 -3 -8 -0 -7 1 4 -4 2 7 4 5 4 -3 -1
-4 7 1 -7 -14 1 1 -3 0 1 -6 -0 5 -23 0 1 -3 2 2 -2 1 -5 -0 -3 -4 9 -8 -2 3 -1 -2 -3 -7 -3 -5 -0 3 -1 2 7 -1 4 9 -3
-1 -4 -0 -15 -6 -5 -1 -5 1 1 1 -4 3 -2 -1 -1 2 5 -1 3 -0 -1 1 3 -4 -2 13 13 3 -0 -1 -3 2 -10 -4 -2 4 0 -2 4 10 -1 5 1
13 1 11 4 5 -2 3 -1 -1 -0 3 -2 -2 -6 -5 -4 0 -3 -5 9 -3 -2 -3 1 -4 -7 16 -3 1 -2 6 -6 -4 -2 -3 1 2 4 1 3 2 6 1 4
11 2 7 -4 0 3 3 2 -2 4 -4 10 -9 2 -3 -2 -3 -9 -7 -5 -2 -1 1 -4 2 15 4 -1 -3 -2 -2 -1 -6 -1 -2 -5 -5 7 4 1 3 2 1 -1
-1 -1 0 -5 -3 2 1 -2 0 -0 -2 1 1 -7 2 0 4 1 2 3 1 -2 1 4 2 -6 -1 1 -2 -12 -8 -5 -1 0 3 -1 1 -0 5 2 8 2 -3 1
5 3 -0 -6 1 -2 -7 1 -0 -2 -0 6 3 -8 -1 -4 -0 3 -3 0 -2 -5 12 10 1 4 1 -5 -8 -7 -4 -1 -3 -2 1 -2 -2 -2 8 -3 9 0 8 -3
1 2 3 -3 1 4 -10 -1 7 6 -1 -1 1 -1 4 7 4 5 1 2 2 2 1 2 4 8 -8 -4 -6 -5 -2 -1 0 1 1 -1 -4 -2 6 16 4 3 5 -1
2 2 -1 3 1 -9 -9 -0 7 10 -7 4 4 -0 0 -3 -5 10 -1 1 2 -1 -3 -1 4 -4 -1 -2 -3 -4 -1 -2 -2 -0 0 1 -2 1 1 20 4 1 2 -2
-3 2 8 2 4 1 15 -3 -0 4 2 3 2 2 2 -4 -2 2 -4 -3 3 -3 1 -1 -0 3 -2 -3 -4 -1 0 -2 -3 -1 -1 0 -0 2 -0 5 12 -5 1 1
-3 -5 5 -1 0 6 5 2 -0 7 14 5 3 -0 -1 -0 3 0 1 -1 -2 1 1 4 2 3 0 -3 -3 -1 -2 -4 -2 -1 -1 2 -1 -2 2 0 13 3 -3 3
5 4 1 -2 -3 -2 1 -10 -7 5 -3 3 1 6 0 9 6 4 6 2 -2 -1 -3 -2 -2 -1 5 -3 -4 -1 -3 -4 -1 -0 -1 -1 -3 -4 3 -3 10 7 0 3
-2 5 5 7 5 2 -1 2 3 6 6 3 4 1 6 -1 1 2 1 4 1 -0 -0 0 2 0 -1 1 -2 -4 -5 -2 4 1 0 -6 -2 7 9 5 24 1 6 4
-2 -1 1 5 3 2 6 -3 3 2 1 0 5 -1 -2 2 -2 0 -2 -1 -1 -2 -1 -2 -2 -2 -1 -3 1 -2 -4 4 -2 -1 0 -3 -6 4 2 7 -1 18 -2 1
-1 -1 1 -2 -1 -8 -3 2 1 -1 2 0 3 6 3 0 1 3 -0 -1 -0 -1 -1 -1 -0 1 -1 1 -1 -4 -1 1 0 2 1 -1 7 3 1 5 -5 11 13 17
1 2 1 1 3 6 3 2 1 -0 4 1 -1 -3 -0 -1 2 -1 -1 -3 -1 -2 -2 -3 -1 -1 -1 -1 -2 3 4 -0 1 3 3 1 -3 8 5 10 -9 3 24 6
Height
1447 1448 1449 1442 1439 1436 1436 1435 1429 1417 1415 1415 1427 1422 1415 1410 1405 1405 1404 1407 1411 1414 1418 1421 1423 1425 1428 1431 1433 1435 1437 1439 1441 1443 1442 1443 1442 1445 1447 1450 1457 1458 1463 1467
1442 1441 1436 1434 1431 1431 1428 1426 1420 1415 1415 1418 1418 1422 1415 1411 1407 1404 1406 1402 1407 1409 1413 1416 1418 1422 1424 1430 1432 1435 1435 1435 1435 1435 1436 1438 1440 1440 1439 1442 1449 1456 1456 1461
1438 1435 1431 1428 1423 1426 1424 1422 1420 1420 1413 1411 1419 1419 1416 1408 1406 1403 1400 1404 1401 1405 1408 1412 1414 1420 1424 1429 1430 1431 1431 1429 1429 1429 1431 1433 1435 1435 1435 1436 1442 1447 1450 1455
1436 1436 1431 1428 1423 1422 1419 1416 1414 1414 1417 1423 1414 1418 1409 1406 1404 1402 1403 1399 1398 1402 1404 1408 1414 1420 1424 1426 1427 1427 1426 1425 1425 1424 1425 1425 1426 1428 1429 1432 1437 1443 1446 1447
1437 1436 1433 1429 1423 1420 1414 1414 1413 1415 1417 1417 1410 1416 1392 1398 1396 1390 1390 1389 1392 1397 1404 1410 1415 1419 1423 1423 1424 1424 1421 1421 1421 1419 1421 1421 1422 1424 1425 1429 1432 1436 1440 1443
1433 1432 1430 1426 1420 1416 1413 1417 1415 1414 1419 1424 1404 1413 1389 1395 1384 1380 1379 1381 1387 1395 1404 1412 1416 1422 1422 1421 1421 1421 1420 1417 1416 1414 1416 1416 1416 1418 1421 1423 1425 1428 1433 1437
1430 1429 1425 1420 1412 1414 1410 1415 1423 1437 1429 1414 1407 1411 1388 1380 1377 1379 1378 1382 1389 1397 1406 1414 1418 1420 1419 1419 1419 1418 1416 1416 1411 1410 1410 1413 1413 1415 1418 1419 1420 1422 1426 1431
1437 1436 1425 1426 1425 1424 1416 1424 1419 1420 1420 1405 1395 1399 1374 1375 1374 1375 1372 1379 1391 1400 1408 1414 1416 1418 1418 1418 1417 1415 1413 1412 1410 1408 1408 1408 1409 1411 1413 1414 1417 1419 1422 1426
1447 1441 1431 1427 1425 1423 1424 1420 1412 1418 1408 1408 1408 1382 1365 1367 1365 1373 1376 1383 1393 1399 1407 1411 1413 1414 1415 1416 1416 1414 1413 1410 1409 1406 1406 1404 1405 1407 1409 1411 1413 1416 1418 1422
1450 1447 1439 1431 1427 1423 1424 1421 1424 1419 1419 1413 1396 1385 1378 1377 1371 1370 1383 1388 1393 1399 1407 1408 1410 1411 1412 1413 1414 1413 1411 1409 1406 1404 1403 1402 1402 1403 1405 1407 1408 1411 1413 1417
1451 1450 1443 1436 1425 1420 1424 1427 1421 1423 1423 1404 1398 1379 1365 1380 1390 1384 1379 1389 1396 1402 1405 1404 1406 1409 1410 1410 1411 1412 1409 1406 1403 1401 1400 1399 1399 1398 1400 1402 1405 1407 1409 1412
1452 1452 1447 1434 1419 1419 1421 1438 1438 1437 1426 1417 1400 1390 1383 1382 1388 1396 1384 1394 1398 1402 1403 1404 1405 1406 1407 1408 1409 1407 1406 1403 1401 1397 1396 1396 1395 1394 1394 1396 1399 1403 1405 1406
1456 1459 1461 1435 1420 1419 1433 1435 1429 1440 1436 1429 1421 1394 1390 1388 1394 1389 1390 1396 1399 1402 1403 1402 1402 1403 1404 1405 1404 1405 1402 1400 1397 1395 1394 1392 1390 1389 1389 1390 1394 1397 1399 1402
1458 1450 1449 1441 1430 1439 1433 1429 1421 1431 1435 1421 1412 1409 1415 1412 1405 1407 1400 1396 1397 1399 1401 1400 1401 1401 1400 1402 1404 1403 1400 1396 1396 1394 1391 1387 1386 1385 1384 1386 1389 1392 1394 1397
1456 1447 1441 1433 1427 1420 1418 1416 1414 1414 1423 1421 1415 1414 1421 1426 1419 1409 1403 1395 1397 1399 1399 1401 1401 1399 1400 1401 1401 1400 1398 1397 1393 1391 1388 1383 1380 1380 1380 1381 1383 1386 1390 1393
1454 1456 1456 1450 1430 1420 1418 1415 1408 1405 1407 1408 1409 1412 1407 1405 1415 1406 1396 1395 1397 1401 1401 1400 1399 1400 1400 1399 1398 1398 1397 1393 1390 1386 1382 1379 1375 1374 1375 1376 1377 1381 1385 1389
1446 1444 1444 1439 1428 1424 1421 1410 1404 1400 1399 1400 1407 1407 1404 1401 1401 1402 1401 1402 1403 1403 1401 1399 1400 1400 1398 1399 1399 1397 1392 1390 1386 1381 1378 1375 1371 1369 1370 1371 1372 1376 1380 1383
1444 1448 1444 1439 1433 1434 1413 1418 1408 1399 1401 1401 1401 1400 1403 1410 1409 1407 1408 1409 1408 1406 1405 1405 1403 1398 1398 1399 1396 1392 1389 1386 1381 1377 1373 1371 1368 1364 1366 1366 1367 1371 1374 1379
1449 1448 1444 1439 1429 1417 1410 1422 1413 1408 1405 1409 1409 1414 1416 1413 1409 1412 1415 1415 1414 1412 1410 1407 1403 1400 1399 1395 1391 1388 1385 1383 1377 1372 1368 1366 1364 1359 1360 1359 1359 1365 1370 1376
1448 1445 1448 1433 1436 1426 1439 1435 1424 1410 1411 1425 1422 1425 1422 1417 1416 1416 1417 1415 1412 1411 1410 1406 1404 1401 1396 1392 1389 1386 1382 1378 1374 1369 1363 1361 1359 1355 1354 1353 1351 1359 1366 1372
1450 1445 1437 1431 1430 1429 1448 1433 1417 1418 1435 1426 1428 1429 1426 1424 1423 1419 1417 1415 1412 1410 1409 1406 1403 1399 1396 1392 1387 1383 1379 1375 1371 1365 1360 1356 1353 1350 1349 1349 1348 1354 1361 1366
1461 1456 1443 1442 1442 1445 1452 1438 1442 1452 1443 1437 1433 1427 1425 1424 1423 1421 1418 1413 1413 1411 1409 1407 1404 1401 1397 1392 1387 1381 1377 1372 1367 1361 1355 1351 1348 1345 1342 1343 1342 1349 1355 1360
1464 1469 1462 1460 1460 1462 1461 1458 1455 1450 1444 1436 1431 1428 1426 1424 1422 1420 1420 1418 1417 1416 1413 1409 1405 1401 1397 1392 1386 1379 1374 1369 1362 1357 1352 1347 1344 1341 1338 1337 1337 1343 1348 1354
1465 1465 1464 1462 1459 1459 1459 1457 1454 1449 1445 1441 1437 1436 1433 1431 1429 1427 1426 1423 1419 1416 1412 1408 1404 1399 1395 1390 1385 1379 1373 1366 1360 1355 1351 1347 1343 1339 1336 1335 1336 1336 1343 1348
1467 1466 1464 1460 1459 1456 1454 1456 1455 1451 1448 1445 1442 1439 1437 1435 1432 1429 1426 1423 1419 1417 1412 1407 1403 1398 1393 1388 1382 1378 1372 1365 1360 1355 1351 1347 1342 1339 1336 1333 1336 1335 1337 1342
1464 1467 1466 1463 1465 1464 1460 1457 1455 1452 1449 1446 1443 1441 1439 1436 1434 1431 1427 1424 1420 1415 1411 1407 1403 1397 1392 1387 1382 1377 1371 1365 1361 1355 1351 1348 1345 1341 1339 1335 1336 1341 1337 1340